[[{"header":{"parameterUnit":"m.s-1","parameterCategory":1,"la1":30.2991,"la2":30.254,"lo1":-89.0895,"lo2":-89.0444,"dy":0.0017,"dx":0.0017,"nx":28,"ny":28,"refTime":"2023-08-11T21:00:00:Z","depth":0,"parameterNumber":2,"parameterNumberName":"U-component_of_WINDS"},"data":[0,0,0,0,0,0,0,0,0,0,0,0,0,0,0,0,0,0,0,0,0,0,0,0,0,0,0,0,0,0,0,0,0,0,0,0,0,0,0,0,0,0,0,0,0,0,0,0,0,0,0,0,0,0,0,0,0,0,5.607,5.6072,0,5.6256,5.6258,5.626,5.6211,5.6208,5.6204,5.62,5.6393,5.6401,5.6409,0,0,0,0,0,0,0,0,0,0,0,0,0,5.5672,5.568,5.607,5.6072,5.6074,5.6256,5.6258,5.6261,5.6212,5.6207,5.6203,5.6199,5.639,5.64,5.641,0,0,0,0,0,0,0,0,0,0,0,0,0,5.585,5.5682,5.6069,5.6072,5.6074,5.6255,5.6258,5.6261,5.6213,5.6207,5.6202,5.6197,5.6386,5.6399,5.6412,5.6602,0,0,5.6451,5.6456,0,0,0,0,0,0,0,0,5.584,5.5865,5.6069,5.6072,5.6075,5.6205,5.6188,5.6376,5.6214,5.616,5.62,5.6194,5.6335,5.6351,5.6399,5.6611,5.6619,5.6452,5.646,5.6465,5.6469,0,0,0,0,0,0,0,5.5828,5.5857,5.6143,5.6072,5.6076,5.6064,5.6083,5.6224,5.6276,5.6164,5.6161,5.6184,5.6335,5.6386,5.6403,5.6622,5.6452,5.6463,5.6471,5.6476,5.6998,5.7004,0,0,0,0,0,0,5.5813,5.5847,5.6137,5.6149,5.5941,5.6075,5.6097,5.6169,5.6275,5.6285,5.6189,5.6181,5.6367,5.6388,5.6409,5.6638,5.6465,5.6477,5.6485,5.6992,5.7,5.7006,0,0,0,0,0,0,5.5805,5.584,5.613,5.5997,5.6033,5.6088,5.6169,5.6175,5.6226,5.6293,5.6302,5.6231,5.6364,5.6391,5.6554,5.6644,5.6483,5.6495,5.6985,5.6995,5.7003,5.7097,0,0,0,0,0,0,5.5794,5.5837,5.591,5.5999,5.604,5.6272,5.6175,5.6183,5.6248,5.624,5.6335,5.6346,5.6361,5.6535,5.6567,5.6659,5.6505,5.6977,5.6989,5.7,5.7086,5.7109,5.7128,0,0,0,0,0,5.578,5.593,5.5914,5.5949,5.6133,5.6277,5.6301,5.6315,5.6256,5.6329,5.6372,5.6343,5.6629,5.6552,5.6587,5.6685,5.6972,5.6986,5.6999,5.7077,5.7104,5.7127,0,0,0,0,0,0,5.5851,5.5942,5.5925,5.6108,5.6185,5.6268,5.6362,5.6344,5.6439,5.6428,5.6442,5.6464,5.663,5.6674,5.6586,5.6873,5.6792,5.6813,5.6839,5.6865,5.6885,5.6871,5.6515,0,0,0,0,0,5.5888,5.5997,5.6071,5.6225,5.6265,5.6307,5.637,5.6375,5.6455,5.6487,5.6542,5.6621,5.6729,5.68,5.6902,5.7093,5.7112,5.7177,5.7197,5.7214,5.7232,5.7334,5.7363,5.7052,5.7052,5.7052,0,0,5.5966,5.6029,5.6097,5.6241,5.6301,5.6414,5.6335,5.6458,5.6541,5.6506,5.6662,5.6705,5.6795,5.6972,5.7052,5.7013,5.7322,5.7232,5.7244,5.7254,5.7352,5.7381,5.7407,5.7061,5.706,5.7058,0,0,5.6164,5.6224,5.6358,5.6419,5.6511,5.6538,5.657,5.6656,5.6683,5.684,5.6815,5.6915,5.7101,5.7165,5.7222,5.7443,5.7419,5.7477,5.7584,5.7684,5.7708,5.773,5.7807,5.7835,5.7495,5.7495,5.7495,0,5.6249,5.6418,5.643,5.6554,5.6618,5.6591,5.6726,5.6786,5.6907,5.6951,5.6905,5.7136,5.7195,5.7386,5.7439,5.7487,5.7524,5.7466,5.7703,5.7725,5.7746,5.782,5.7849,5.7501,5.7501,5.75,5.7499,0,5.6517,5.6634,5.6732,5.6848,5.6923,5.7053,5.7084,5.7158,5.7156,5.7187,5.7347,5.7416,5.7531,5.7577,5.7577,5.7768,5.774,5.7699,5.7617,5.7782,5.7851,5.788,5.751,5.7508,5.7506,5.7505,0,0,5.6766,5.6886,5.6921,5.6973,5.7071,5.7162,5.729,5.7402,5.7465,5.7549,5.7657,5.7814,5.7776,5.784,5.7847,5.7934,5.8103,5.7882,5.7884,5.792,5.8316,5.8345,5.8378,5.8088,5.8094,5.8098,5.8308,0,5.6972,5.7197,5.7211,5.7415,5.7522,5.7497,5.7609,5.7681,5.7714,5.781,5.7846,5.7956,5.7899,5.7937,5.8023,5.8065,5.8183,5.805,5.8188,5.8192,5.8164,5.8415,5.8447,5.8641,5.8336,5.834,5.8344,0,5.7243,5.7334,5.7548,5.7629,5.7675,5.7775,5.7878,5.797,5.8051,5.8069,5.814,5.8134,5.8265,5.8179,5.8359,5.8268,5.8325,5.8354,5.8362,5.8375,5.8277,5.8433,5.8704,5.8733,5.8387,5.8384,5.838,0,5.7401,5.7577,5.7728,5.7773,5.7872,5.7942,5.7987,5.8063,5.8129,5.8219,5.8261,5.8366,5.8424,5.8505,5.8527,5.8462,5.8706,5.8622,5.8724,5.8723,5.8775,5.8772,5.9058,5.8815,5.8814,5.8814,5.8813,0,5.763,5.7761,5.78,5.7892,5.8039,5.8053,5.8198,5.8238,5.8305,5.8404,5.839,5.8484,5.8507,5.8606,5.8624,5.8769,5.8796,5.8813,5.8816,5.8814,5.8812,5.8851,5.8837,5.8822,5.882,5.8818,5.8817,0,5.7831,5.7862,5.8024,5.8104,5.8127,5.8232,5.83,5.8388,5.8418,5.8545,5.8575,5.8623,5.8737,5.8767,5.8905,5.8917,5.9088,5.9079,5.9061,5.906,5.9159,5.9149,5.948,5.9523,5.9253,5.9255,5.9257,0,5.7974,5.8074,5.8165,5.823,5.8277,5.8382,5.8449,5.8467,5.8537,5.8636,5.8713,5.8825,5.8916,5.91,5.9147,5.9252,5.9245,5.9354,5.926,5.9254,5.9245,5.9238,5.9247,5.9371,5.9374,5.9376,5.9378,0,5.8224,5.8234,5.833,5.8432,5.8512,5.8593,5.8671,5.8725,5.8754,5.8834,5.895,5.902,5.916,5.9271,5.9377,5.9423,5.9406,5.9407,5.9436,5.9434,5.9418,5.9426,5.9107,5.9399,5.9397,5.9396,5.9394,5.9394,5.84,5.8487,5.8563,5.8671,5.8731,5.8804,5.889,5.893,5.9027,5.9141,5.9146,5.9273,5.935,5.9489,5.9541,5.964,5.9607,5.9649,5.966,5.9669,5.9677,5.9403,5.9659,5.9659,5.9658,5.9658,5.9657,0,5.8647,5.8695,5.8794,5.8902,5.8986,5.8962,5.9046,5.9118,5.9229,5.9302,5.9392,5.9525,5.9632,5.9687,5.9794,5.9863,5.9857,5.989,5.9885,5.9895,5.9701,5.9665,5.9892,5.9892,5.9892,5.9892,5.9892,5.9892,5.8786,5.8932,5.8951,5.9125,5.9172,5.9295,5.9345,5.9411,5.947,5.9618,5.9707,5.9742,5.9808,5.9919,6.0017,6.003,6.0069,6.0106,6.0115,5.9933,5.9909,5.9886,5.9852,6.0115,6.0115,6.0301,6.0302,6.0304]},{"header":{"parameterUnit":"m.s-1","parameterCategory":1,"la1":30.2991,"la2":30.254,"lo1":-89.0895,"lo2":-89.0444,"dy":0.0017,"dx":0.0017,"nx":28,"ny":28,"refTime":"2023-08-11T21:00:00:Z","depth":0,"parameterNumber":3,"parameterNumberName":"V-component_of_WINDS"},"data":[0,0,0,0,0,0,0,0,0,0,0,0,0,0,0,0,0,0,0,0,0,0,0,0,0,0,0,0,0,0,0,0,0,0,0,0,0,0,0,0,0,0,0,0,0,0,0,0,0,0,0,0,0,0,0,0,0,0,0.5098,0.5098,0,0.5118,0.5119,0.5119,0.5093,0.5092,0.5091,0.509,0.5114,0.5115,0.5117,0,0,0,0,0,0,0,0,0,0,0,0,0,0.5038,0.5039,0.5098,0.5098,0.5098,0.5118,0.5119,0.5119,0.5093,0.5092,0.5091,0.509,0.5113,0.5115,0.5117,0,0,0,0,0,0,0,0,0,0,0,0,0,0.5062,0.5039,0.5098,0.5088,0.5087,0.5118,0.5119,0.5119,0.5094,0.5092,0.5091,0.5089,0.5113,0.5115,0.5117,0.516,0,0,0.5124,0.5125,0,0,0,0,0,0,0,0,0.506,0.5064,0.5089,0.5089,0.5088,0.5102,0.5106,0.5133,0.5094,0.5091,0.509,0.5089,0.5111,0.5113,0.5121,0.5161,0.5162,0.5124,0.5126,0.5127,0.5127,0,0,0,0,0,0,0,0.5059,0.5063,0.5106,0.509,0.5089,0.5083,0.5085,0.5111,0.5109,0.5091,0.509,0.5092,0.5111,0.5118,0.5121,0.5162,0.5124,0.5126,0.5128,0.5129,0.5238,0.524,0,0,0,0,0,0,0.5058,0.5062,0.5105,0.5107,0.507,0.5085,0.5087,0.5099,0.5109,0.5109,0.5093,0.5091,0.5115,0.5118,0.5122,0.5172,0.5127,0.5129,0.513,0.5236,0.5238,0.524,0,0,0,0,0,0,0.5057,0.5062,0.5105,0.5084,0.5089,0.5088,0.5101,0.51,0.5108,0.511,0.511,0.5102,0.5114,0.5118,0.515,0.5173,0.513,0.5132,0.5235,0.5237,0.5239,0.5273,0,0,0,0,0,0,0.5055,0.5062,0.5078,0.5084,0.509,0.5133,0.5102,0.5101,0.5111,0.5108,0.5118,0.5118,0.5113,0.5147,0.5152,0.5175,0.5134,0.5233,0.5236,0.5238,0.527,0.5277,0.5282,0,0,0,0,0,0.5053,0.5087,0.5079,0.5084,0.511,0.5134,0.5137,0.513,0.5113,0.513,0.5131,0.5118,0.5169,0.515,0.5156,0.518,0.5231,0.5235,0.5238,0.5268,0.5275,0.5282,0,0,0,0,0,0,0.5084,0.5088,0.5079,0.5116,0.5125,0.5129,0.515,0.5139,0.5154,0.515,0.5142,0.5144,0.5178,0.5182,0.5161,0.5221,0.5197,0.5202,0.5218,0.5225,0.5231,0.523,0.5136,0,0,0,0,0,0.5095,0.5114,0.5116,0.5149,0.5154,0.5151,0.5161,0.5155,0.5164,0.5168,0.5172,0.5182,0.52,0.5213,0.523,0.527,0.5272,0.5289,0.5295,0.53,0.5305,0.5326,0.5334,0.5251,0.5251,0.5251,0,0,0.5119,0.5123,0.5136,0.5155,0.5162,0.5182,0.5155,0.5177,0.5192,0.5172,0.5202,0.5205,0.5216,0.5252,0.5268,0.5256,0.5327,0.5304,0.5308,0.531,0.5331,0.5338,0.5345,0.5254,0.5253,0.5253,0,0,0.5172,0.5177,0.5204,0.5211,0.522,0.5218,0.5224,0.5231,0.5232,0.5261,0.5247,0.5264,0.5296,0.5304,0.5312,0.5367,0.5356,0.5373,0.5404,0.5425,0.5432,0.5437,0.5457,0.5464,0.5377,0.5377,0.5377,0,0.52,0.5229,0.522,0.5243,0.5253,0.5234,0.5262,0.5269,0.5284,0.5291,0.5277,0.5316,0.5321,0.5359,0.5372,0.538,0.5387,0.5372,0.5431,0.5437,0.5442,0.5461,0.5469,0.5379,0.5379,0.5379,0.5379,0,0.5264,0.5284,0.5305,0.5319,0.533,0.5356,0.5351,0.5364,0.5356,0.5355,0.5386,0.5392,0.541,0.5418,0.5411,0.5455,0.5447,0.5432,0.5408,0.5452,0.547,0.5477,0.5382,0.5382,0.5381,0.538,0,0,0.5339,0.5346,0.5354,0.536,0.5368,0.5384,0.5408,0.5425,0.5436,0.5446,0.5467,0.5494,0.548,0.5489,0.5483,0.5502,0.5545,0.5484,0.5485,0.5496,0.5593,0.5605,0.5613,0.5537,0.5538,0.5539,0.5593,0,0.5392,0.5434,0.5426,0.5467,0.5486,0.5468,0.5489,0.5497,0.5497,0.5513,0.5513,0.5532,0.5512,0.5517,0.5535,0.5536,0.5564,0.5532,0.5557,0.5558,0.5555,0.5623,0.5635,0.5686,0.5599,0.5601,0.5601,0,0.546,0.5472,0.5515,0.552,0.5528,0.5547,0.5561,0.5577,0.5585,0.5583,0.5593,0.5583,0.5608,0.5583,0.5617,0.5595,0.5604,0.5606,0.5608,0.5611,0.5583,0.5628,0.5701,0.5709,0.5612,0.5611,0.561,0,0.5511,0.5538,0.5567,0.5573,0.5579,0.5593,0.5596,0.5603,0.5613,0.5625,0.5632,0.5647,0.5656,0.5668,0.5662,0.5644,0.5698,0.5672,0.5698,0.5698,0.5711,0.571,0.5788,0.5716,0.5716,0.5715,0.5715,0,0.5572,0.5599,0.559,0.5608,0.5638,0.5628,0.5658,0.5659,0.5665,0.5683,0.5668,0.5686,0.5677,0.5694,0.569,0.5719,0.5723,0.5723,0.5722,0.5725,0.5725,0.5732,0.5728,0.5717,0.5717,0.5717,0.5716,0,0.5634,0.5629,0.566,0.5663,0.5664,0.5686,0.5688,0.5705,0.5703,0.5726,0.5731,0.5729,0.5748,0.5743,0.5764,0.5761,0.5798,0.5792,0.5795,0.5794,0.582,0.5818,0.5905,0.5916,0.5837,0.5838,0.5838,0,0.5674,0.5695,0.5699,0.571,0.5714,0.5732,0.5741,0.5732,0.5743,0.5754,0.5769,0.5787,0.5801,0.5832,0.5832,0.5848,0.5843,0.5872,0.5845,0.5848,0.5844,0.5843,0.5845,0.5878,0.5879,0.588,0.588,0,0.5745,0.5741,0.5756,0.577,0.5782,0.5792,0.5801,0.5811,0.5802,0.5816,0.5834,0.5845,0.5866,0.5884,0.5898,0.5902,0.589,0.5888,0.5895,0.5899,0.59,0.5901,0.5811,0.5887,0.5886,0.5886,0.5885,0.5885,0.5798,0.5815,0.5821,0.5837,0.5843,0.5852,0.5868,0.5867,0.5882,0.5898,0.5892,0.5913,0.592,0.5938,0.5944,0.5961,0.595,0.596,0.5963,0.5966,0.5969,0.5897,0.5964,0.5963,0.5963,0.5963,0.5963,0,0.5869,0.5871,0.5886,0.5899,0.5912,0.5898,0.5908,0.592,0.5939,0.5946,0.5959,0.5981,0.5998,0.5999,0.6015,0.6028,0.6023,0.6033,0.6032,0.6033,0.5978,0.597,0.6036,0.6036,0.6036,0.6036,0.6036,0.6036,0.5907,0.5935,0.5932,0.5963,0.5965,0.5986,0.5992,0.6,0.6006,0.603,0.6044,0.6044,0.6049,0.6065,0.6079,0.6079,0.6086,0.6098,0.6096,0.6044,0.6037,0.603,0.6023,0.6099,0.61,0.615,0.6151,0.6151]}]]